Year,Month,Day,Hour,Minute,Value (Times are PST for temperature in C)
2018,06,17,00,00,16.90
2018,06,17,00,01,16.80
2018,06,17,00,02,16.80
2018,06,17,00,03,16.80
2018,06,17,00,04,16.80
2018,06,17,00,05,16.80
2018,06,17,00,06,16.80
2018,06,17,00,07,16.80
2018,06,17,00,08,16.70
2018,06,17,00,09,16.70
2018,06,17,00,10,16.70
2018,06,17,00,11,16.70
2018,06,17,00,12,16.60
2018,06,17,00,13,16.60
2018,06,17,00,14,16.60
2018,06,17,00,15,16.60
2018,06,17,00,16,16.50
2018,06,17,00,17,16.50
2018,06,17,00,18,16.50
2018,06,17,00,19,16.40
2018,06,17,00,20,16.40
2018,06,17,00,21,16.40
2018,06,17,00,22,16.40
2018,06,17,00,23,16.40
2018,06,17,00,24,16.40
2018,06,17,00,25,16.30
2018,06,17,00,26,16.30
2018,06,17,00,27,16.30
2018,06,17,00,28,16.30
2018,06,17,00,29,16.30
2018,06,17,00,30,16.30
2018,06,17,00,31,16.20
2018,06,17,00,32,16.20
2018,06,17,00,33,16.20
2018,06,17,00,34,16.20
2018,06,17,00,35,16.20
2018,06,17,00,36,16.10
2018,06,17,00,37,16.10
2018,06,17,00,38,16.10
2018,06,17,00,39,16.10
2018,06,17,00,40,16.10
2018,06,17,00,41,16.10
2018,06,17,00,42,16.00
2018,06,17,00,43,16.00
2018,06,17,00,44,16.00
2018,06,17,00,45,16.00
2018,06,17,00,46,15.90
2018,06,17,00,47,15.90
2018,06,17,00,48,15.90
2018,06,17,00,49,15.90
2018,06,17,00,50,15.90
2018,06,17,00,51,15.80
2018,06,17,00,52,15.80
2018,06,17,00,53,15.80
2018,06,17,00,54,15.80
2018,06,17,00,55,15.80
2018,06,17,00,56,15.80
2018,06,17,00,57,15.80
2018,06,17,00,58,15.70
2018,06,17,00,59,15.70
2018,06,17,01,00,15.70
2018,06,17,01,01,15.70
2018,06,17,01,02,15.60
2018,06,17,01,03,15.60
2018,06,17,01,04,15.60
2018,06,17,01,05,15.50
2018,06,17,01,06,15.50
2018,06,17,01,07,15.50
2018,06,17,01,08,15.40
2018,06,17,01,09,15.40
2018,06,17,01,10,15.40
2018,06,17,01,11,15.40
2018,06,17,01,12,15.40
2018,06,17,01,13,15.30
2018,06,17,01,14,15.30
2018,06,17,01,15,15.30
2018,06,17,01,16,15.30
2018,06,17,01,17,15.30
2018,06,17,01,18,15.20
2018,06,17,01,19,15.20
2018,06,17,01,20,15.20
2018,06,17,01,21,15.20
2018,06,17,01,22,15.20
2018,06,17,01,23,15.10
2018,06,17,01,24,15.10
2018,06,17,01,25,15.10
2018,06,17,01,26,15.00
2018,06,17,01,27,15.00
2018,06,17,01,28,15.00
2018,06,17,01,29,15.00
2018,06,17,01,30,15.00
2018,06,17,01,31,15.00
2018,06,17,01,32,15.00
2018,06,17,01,33,15.00
2018,06,17,01,34,15.00
2018,06,17,01,35,15.00
2018,06,17,01,36,15.00
2018,06,17,01,37,15.00
2018,06,17,01,38,15.00
2018,06,17,01,39,14.90
2018,06,17,01,40,14.90
2018,06,17,01,41,14.90
2018,06,17,01,42,14.90
2018,06,17,01,43,14.80
2018,06,17,01,44,14.80
2018,06,17,01,45,14.80
2018,06,17,01,46,14.80
2018,06,17,01,47,14.80
2018,06,17,01,48,14.80
2018,06,17,01,49,14.70
2018,06,17,01,50,14.70
2018,06,17,01,51,14.70
2018,06,17,01,52,14.70
2018,06,17,01,53,14.70
2018,06,17,01,54,14.60
2018,06,17,01,55,14.60
2018,06,17,01,56,14.60
2018,06,17,01,57,14.60
2018,06,17,01,58,14.60
2018,06,17,01,59,14.60
2018,06,17,02,00,14.60
2018,06,17,02,01,14.50
2018,06,17,02,02,14.50
2018,06,17,02,03,14.50
2018,06,17,02,04,14.50
2018,06,17,02,05,14.40
2018,06,17,02,06,14.40
2018,06,17,02,07,14.40
2018,06,17,02,08,14.40
2018,06,17,02,09,14.30
2018,06,17,02,10,14.30
2018,06,17,02,11,14.30
2018,06,17,02,12,14.30
2018,06,17,02,13,14.20
2018,06,17,02,14,14.20
2018,06,17,02,15,14.20
2018,06,17,02,16,14.20
2018,06,17,02,17,14.20
2018,06,17,02,18,14.10
2018,06,17,02,19,14.10
2018,06,17,02,20,14.10
2018,06,17,02,21,14.10
2018,06,17,02,22,14.10
2018,06,17,02,23,14.10
2018,06,17,02,24,14.10
2018,06,17,02,25,14.10
2018,06,17,02,26,14.10
2018,06,17,02,27,14.10
2018,06,17,02,28,14.10
2018,06,17,02,29,14.10
2018,06,17,02,30,14.00
2018,06,17,02,31,14.00
2018,06,17,02,32,14.00
2018,06,17,02,33,14.00
2018,06,17,02,34,14.00
2018,06,17,02,35,13.90
2018,06,17,02,36,13.90
2018,06,17,02,37,13.90
2018,06,17,02,38,13.90
2018,06,17,02,39,13.90
2018,06,17,02,40,13.90
2018,06,17,02,41,13.90
2018,06,17,02,42,13.80
2018,06,17,02,43,13.80
2018,06,17,02,44,13.80
2018,06,17,02,45,13.80
2018,06,17,02,46,13.80
2018,06,17,02,47,13.80
2018,06,17,02,48,13.80
2018,06,17,02,49,13.80
2018,06,17,02,50,13.80
2018,06,17,02,51,13.80
2018,06,17,02,52,13.70
2018,06,17,02,53,13.70
2018,06,17,02,54,13.70
2018,06,17,02,55,13.70
2018,06,17,02,56,13.70
2018,06,17,02,57,13.80
2018,06,17,02,58,13.80
2018,06,17,02,59,13.80
2018,06,17,03,00,13.80
2018,06,17,03,01,13.80
2018,06,17,03,02,13.80
2018,06,17,03,03,13.80
2018,06,17,03,04,13.70
2018,06,17,03,05,13.70
2018,06,17,03,06,13.70
2018,06,17,03,07,13.70
2018,06,17,03,08,13.60
2018,06,17,03,09,13.60
2018,06,17,03,10,13.60
2018,06,17,03,11,13.60
2018,06,17,03,12,13.50
2018,06,17,03,13,13.50
2018,06,17,03,14,13.50
2018,06,17,03,15,13.50
2018,06,17,03,16,13.40
2018,06,17,03,17,13.40
2018,06,17,03,18,13.40
2018,06,17,03,19,13.40
2018,06,17,03,20,13.30
2018,06,17,03,21,13.30
2018,06,17,03,22,13.30
2018,06,17,03,23,13.30
2018,06,17,03,24,13.30
2018,06,17,03,25,13.20
2018,06,17,03,26,13.20
2018,06,17,03,27,13.20
2018,06,17,03,28,13.20
2018,06,17,03,29,13.20
2018,06,17,03,30,13.20
2018,06,17,03,31,13.20
2018,06,17,03,32,13.20
2018,06,17,03,33,13.20
2018,06,17,03,34,13.20
2018,06,17,03,35,13.20
2018,06,17,03,36,13.20
2018,06,17,03,37,13.20
2018,06,17,03,38,13.20
2018,06,17,03,39,13.20
2018,06,17,03,40,13.20
2018,06,17,03,41,13.20
2018,06,17,03,42,13.20
2018,06,17,03,43,13.20
2018,06,17,03,44,13.20
2018,06,17,03,45,13.20
2018,06,17,03,46,13.20
2018,06,17,03,47,13.20
2018,06,17,03,48,13.20
2018,06,17,03,49,13.20
2018,06,17,03,50,13.20
2018,06,17,03,51,13.10
2018,06,17,03,52,13.10
2018,06,17,03,53,13.10
2018,06,17,03,54,13.10
2018,06,17,03,55,13.10
2018,06,17,03,56,13.10
2018,06,17,03,57,13.10
2018,06,17,03,58,13.10
2018,06,17,03,59,13.10
2018,06,17,04,00,13.00
2018,06,17,04,01,13.00
2018,06,17,04,02,13.00
2018,06,17,04,03,12.90
2018,06,17,04,04,12.90
2018,06,17,04,05,12.90
2018,06,17,04,06,12.90
2018,06,17,04,07,12.90
2018,06,17,04,08,12.90
2018,06,17,04,09,12.80
2018,06,17,04,10,12.80
2018,06,17,04,11,12.80
2018,06,17,04,12,12.80
2018,06,17,04,13,12.80
2018,06,17,04,14,12.70
2018,06,17,04,15,12.70
2018,06,17,04,16,12.70
2018,06,17,04,17,12.70
2018,06,17,04,18,12.70
2018,06,17,04,19,12.70
2018,06,17,04,20,12.70
2018,06,17,04,21,12.70
2018,06,17,04,22,12.70
2018,06,17,04,23,12.70
2018,06,17,04,24,12.70
2018,06,17,04,25,12.70
2018,06,17,04,26,12.70
2018,06,17,04,27,12.70
2018,06,17,04,28,12.70
2018,06,17,04,29,12.70
2018,06,17,04,30,12.70
2018,06,17,04,31,12.70
2018,06,17,04,32,12.70
2018,06,17,04,33,12.70
2018,06,17,04,34,12.70
2018,06,17,04,35,12.80
2018,06,17,04,36,12.80
2018,06,17,04,37,12.80
2018,06,17,04,38,12.80
2018,06,17,04,39,12.80
2018,06,17,04,40,12.80
2018,06,17,04,41,12.80
2018,06,17,04,42,12.80
2018,06,17,04,43,12.80
2018,06,17,04,44,12.80
2018,06,17,04,45,12.80
2018,06,17,04,46,12.70
2018,06,17,04,47,12.70
2018,06,17,04,48,12.70
2018,06,17,04,49,12.70
2018,06,17,04,50,12.70
2018,06,17,04,51,12.60
2018,06,17,04,52,12.60
2018,06,17,04,53,12.60
2018,06,17,04,54,12.60
2018,06,17,04,55,12.60
2018,06,17,04,56,12.50
2018,06,17,04,57,12.50
2018,06,17,04,58,12.50
2018,06,17,04,59,12.50
2018,06,17,05,00,12.40
2018,06,17,05,01,12.40
2018,06,17,05,02,12.40
2018,06,17,05,03,12.30
2018,06,17,05,04,12.30
2018,06,17,05,05,12.30
2018,06,17,05,06,12.30
2018,06,17,05,07,12.30
2018,06,17,05,08,12.30
2018,06,17,05,09,12.20
2018,06,17,05,10,12.20
2018,06,17,05,11,12.20
2018,06,17,05,12,12.20
2018,06,17,05,13,12.20
2018,06,17,05,14,12.10
2018,06,17,05,15,12.10
2018,06,17,05,16,12.10
2018,06,17,05,17,12.10
2018,06,17,05,18,12.10
2018,06,17,05,19,12.10
2018,06,17,05,20,12.10
2018,06,17,05,21,12.00
2018,06,17,05,22,12.00
2018,06,17,05,23,12.00
2018,06,17,05,24,12.00
2018,06,17,05,25,12.00
2018,06,17,05,26,12.00
2018,06,17,05,27,12.00
2018,06,17,05,28,11.90
2018,06,17,05,29,11.90
2018,06,17,05,30,11.90
2018,06,17,05,31,11.90
2018,06,17,05,32,11.90
2018,06,17,05,33,11.90
2018,06,17,05,34,11.90
2018,06,17,05,35,11.90
2018,06,17,05,36,11.90
2018,06,17,05,37,11.90
2018,06,17,05,38,11.90
2018,06,17,05,39,11.90
2018,06,17,05,40,11.90
2018,06,17,05,41,11.90
2018,06,17,05,42,11.90
2018,06,17,05,43,11.90
2018,06,17,05,44,11.90
2018,06,17,05,45,11.90
2018,06,17,05,46,11.90
2018,06,17,05,47,11.80
2018,06,17,05,48,11.80
2018,06,17,05,49,11.80
2018,06,17,05,50,11.80
2018,06,17,05,51,11.80
2018,06,17,05,52,11.80
2018,06,17,05,53,11.80
2018,06,17,05,54,11.80
2018,06,17,05,55,11.80
2018,06,17,05,56,11.80
2018,06,17,05,57,11.80
2018,06,17,05,58,11.80
2018,06,17,05,59,11.80
2018,06,17,06,00,11.80
2018,06,17,06,01,11.80
2018,06,17,06,02,11.80
2018,06,17,06,03,11.90
2018,06,17,06,04,11.90
2018,06,17,06,05,11.90
2018,06,17,06,06,11.90
2018,06,17,06,07,11.90
2018,06,17,06,08,11.90
2018,06,17,06,09,11.90
2018,06,17,06,10,11.90
2018,06,17,06,11,11.90
2018,06,17,06,12,11.90
2018,06,17,06,13,11.90
2018,06,17,06,14,11.90
2018,06,17,06,15,11.90
2018,06,17,06,16,11.90
2018,06,17,06,17,11.90
2018,06,17,06,18,12.00
2018,06,17,06,19,12.00
2018,06,17,06,20,12.00
2018,06,17,06,21,12.00
2018,06,17,06,22,12.00
2018,06,17,06,23,12.10
2018,06,17,06,24,12.10
2018,06,17,06,25,12.10
2018,06,17,06,26,12.20
2018,06,17,06,27,12.20
2018,06,17,06,28,12.20
2018,06,17,06,29,12.20
2018,06,17,06,30,12.20
2018,06,17,06,31,12.30
2018,06,17,06,32,12.30
2018,06,17,06,33,12.30
2018,06,17,06,34,12.30
2018,06,17,06,35,12.30
2018,06,17,06,36,12.40
2018,06,17,06,37,12.40
2018,06,17,06,38,12.40
2018,06,17,06,39,12.50
2018,06,17,06,40,12.50
2018,06,17,06,41,12.60
2018,06,17,06,42,12.60
2018,06,17,06,43,12.60
2018,06,17,06,44,12.70
2018,06,17,06,45,12.70
2018,06,17,06,46,12.80
2018,06,17,06,47,12.80
2018,06,17,06,48,12.80
2018,06,17,06,49,12.90
2018,06,17,06,50,13.00
2018,06,17,06,51,13.10
2018,06,17,06,52,13.20
2018,06,17,06,53,13.30
2018,06,17,06,54,13.40
2018,06,17,06,55,13.60
2018,06,17,06,56,13.80
2018,06,17,06,57,13.90
2018,06,17,06,58,14.10
2018,06,17,06,59,14.20
2018,06,17,07,00,14.40
2018,06,17,07,01,14.50
2018,06,17,07,02,14.60
2018,06,17,07,03,14.70
2018,06,17,07,04,14.80
2018,06,17,07,05,14.90
2018,06,17,07,06,15.00
2018,06,17,07,07,15.00
2018,06,17,07,08,15.00
2018,06,17,07,09,15.00
2018,06,17,07,10,15.10
2018,06,17,07,11,15.20
2018,06,17,07,12,15.20
2018,06,17,07,13,15.30
2018,06,17,07,14,15.50
2018,06,17,07,15,15.60
2018,06,17,07,16,15.80
2018,06,17,07,17,15.90
2018,06,17,07,18,16.10
2018,06,17,07,19,16.20
2018,06,17,07,20,16.30
2018,06,17,07,21,16.50
2018,06,17,07,22,16.60
2018,06,17,07,23,16.70
2018,06,17,07,24,16.80
2018,06,17,07,25,16.90
2018,06,17,07,26,17.00
2018,06,17,07,27,17.20
2018,06,17,07,28,17.30
2018,06,17,07,29,17.40
2018,06,17,07,30,17.50
2018,06,17,07,31,17.70
2018,06,17,07,32,17.80
2018,06,17,07,33,17.90
2018,06,17,07,34,18.10
2018,06,17,07,35,18.20
2018,06,17,07,36,18.40
2018,06,17,07,37,18.50
2018,06,17,07,38,18.60
2018,06,17,07,39,18.70
2018,06,17,07,40,18.80
2018,06,17,07,41,18.80
2018,06,17,07,42,18.90
2018,06,17,07,43,18.90
2018,06,17,07,44,19.00
2018,06,17,07,45,19.10
2018,06,17,07,46,19.30
2018,06,17,07,47,19.40
2018,06,17,07,48,19.50
2018,06,17,07,49,19.60
2018,06,17,07,50,19.70
2018,06,17,07,51,19.80
2018,06,17,07,52,19.80
2018,06,17,07,53,19.90
2018,06,17,07,54,19.90
2018,06,17,07,55,20.00
2018,06,17,07,56,20.10
2018,06,17,07,57,20.20
2018,06,17,07,58,20.20
2018,06,17,07,59,20.30
2018,06,17,08,00,20.40
2018,06,17,08,01,20.40
2018,06,17,08,02,20.40
2018,06,17,08,03,20.40
2018,06,17,08,04,20.50
2018,06,17,08,05,20.50
2018,06,17,08,06,20.50
2018,06,17,08,07,20.60
2018,06,17,08,08,20.60
2018,06,17,08,09,20.60
2018,06,17,08,10,20.70
2018,06,17,08,11,20.80
2018,06,17,08,12,21.00
2018,06,17,08,13,21.10
2018,06,17,08,14,21.20
2018,06,17,08,15,21.30
2018,06,17,08,16,21.50
2018,06,17,08,17,21.60
2018,06,17,08,18,21.70
2018,06,17,08,19,21.80
2018,06,17,08,20,21.80
2018,06,17,08,21,21.80
2018,06,17,08,22,21.80
2018,06,17,08,23,21.70
2018,06,17,08,24,21.60
2018,06,17,08,25,21.50
2018,06,17,08,26,21.50
2018,06,17,08,27,21.40
2018,06,17,08,28,21.40
2018,06,17,08,29,21.40
2018,06,17,08,30,21.40
2018,06,17,08,31,21.50
2018,06,17,08,32,21.50
2018,06,17,08,33,21.60
2018,06,17,08,34,21.60
2018,06,17,08,35,21.70
2018,06,17,08,36,21.70
2018,06,17,08,37,21.80
2018,06,17,08,38,21.80
2018,06,17,08,39,21.90
2018,06,17,08,40,22.10
2018,06,17,08,41,22.20
2018,06,17,08,42,22.20
2018,06,17,08,43,22.20
2018,06,17,08,44,22.30
2018,06,17,08,45,22.40
2018,06,17,08,46,22.40
2018,06,17,08,47,22.50
2018,06,17,08,48,22.60
2018,06,17,08,49,22.70
2018,06,17,08,50,22.70
2018,06,17,08,51,22.80
2018,06,17,08,52,22.80
2018,06,17,08,53,22.90
2018,06,17,08,54,23.00
2018,06,17,08,55,23.00
2018,06,17,08,56,23.00
2018,06,17,08,57,23.10
2018,06,17,08,58,23.10
2018,06,17,08,59,23.00
2018,06,17,09,00,22.90
2018,06,17,09,01,22.90
2018,06,17,09,02,23.00
2018,06,17,09,03,23.10
2018,06,17,09,04,23.00
2018,06,17,09,05,22.90
2018,06,17,09,06,22.90
2018,06,17,09,07,22.90
2018,06,17,09,08,23.00
2018,06,17,09,09,23.10
2018,06,17,09,10,23.20
2018,06,17,09,11,23.20
2018,06,17,09,12,23.30
2018,06,17,09,13,23.30
2018,06,17,09,14,23.30
2018,06,17,09,15,23.40
2018,06,17,09,16,23.40
2018,06,17,09,17,23.50
2018,06,17,09,18,23.60
2018,06,17,09,19,23.60
2018,06,17,09,20,23.60
2018,06,17,09,21,23.70
2018,06,17,09,22,23.80
2018,06,17,09,23,23.80
2018,06,17,09,24,23.90
2018,06,17,09,25,24.00
2018,06,17,09,26,24.00
2018,06,17,09,27,24.10
2018,06,17,09,28,24.20
2018,06,17,09,29,24.20
2018,06,17,09,30,24.20
2018,06,17,09,31,24.20
2018,06,17,09,32,24.30
2018,06,17,09,33,24.40
2018,06,17,09,34,24.50
2018,06,17,09,35,24.60
2018,06,17,09,36,24.70
2018,06,17,09,37,24.70
2018,06,17,09,38,24.70
2018,06,17,09,39,24.70
2018,06,17,09,40,24.60
2018,06,17,09,41,24.60
2018,06,17,09,42,24.50
2018,06,17,09,43,24.50
2018,06,17,09,44,24.60
2018,06,17,09,45,24.60
2018,06,17,09,46,24.70
2018,06,17,09,47,24.80
2018,06,17,09,48,24.90
2018,06,17,09,49,25.00
2018,06,17,09,50,25.10
2018,06,17,09,51,25.20
2018,06,17,09,52,25.40
2018,06,17,09,53,25.50
2018,06,17,09,54,25.50
2018,06,17,09,55,25.60
2018,06,17,09,56,25.60
2018,06,17,09,57,25.70
2018,06,17,09,58,25.80
2018,06,17,09,59,25.80
2018,06,17,10,00,25.80
2018,06,17,10,01,25.70
2018,06,17,10,02,25.60
2018,06,17,10,03,25.60
2018,06,17,10,04,25.60
2018,06,17,10,05,25.50
2018,06,17,10,06,25.40
2018,06,17,10,07,25.40
2018,06,17,10,08,25.40
2018,06,17,10,09,25.40
2018,06,17,10,10,25.40
2018,06,17,10,11,25.30
2018,06,17,10,12,25.30
2018,06,17,10,13,25.30
2018,06,17,10,14,25.40
2018,06,17,10,15,25.40
2018,06,17,10,16,25.50
2018,06,17,10,17,25.60
2018,06,17,10,18,25.60
2018,06,17,10,19,25.70
2018,06,17,10,20,25.80
2018,06,17,10,21,25.90
2018,06,17,10,22,25.90
2018,06,17,10,23,25.90
2018,06,17,10,24,25.60
2018,06,17,10,25,25.30
2018,06,17,10,26,25.00
2018,06,17,10,27,24.90
2018,06,17,10,28,24.90
2018,06,17,10,29,24.90
2018,06,17,10,30,24.80
2018,06,17,10,31,24.70
2018,06,17,10,32,24.60
2018,06,17,10,33,24.40
2018,06,17,10,34,24.20
2018,06,17,10,35,24.10
2018,06,17,10,36,24.00
2018,06,17,10,37,23.80
2018,06,17,10,38,23.70
2018,06,17,10,39,23.70
2018,06,17,10,40,23.70
2018,06,17,10,41,23.80
2018,06,17,10,42,23.80
2018,06,17,10,43,23.70
2018,06,17,10,44,23.70
2018,06,17,10,45,23.60
2018,06,17,10,46,23.70
2018,06,17,10,47,23.80
2018,06,17,10,48,23.80
2018,06,17,10,49,23.90
2018,06,17,10,50,23.90
2018,06,17,10,51,23.90
2018,06,17,10,52,23.90
2018,06,17,10,53,23.90
2018,06,17,10,54,23.80
2018,06,17,10,55,23.80
2018,06,17,10,56,23.80
2018,06,17,10,57,23.90
2018,06,17,10,58,24.10
2018,06,17,10,59,24.20
2018,06,17,11,00,24.30
2018,06,17,11,01,24.30
2018,06,17,11,02,24.30
2018,06,17,11,03,24.30
2018,06,17,11,04,24.40
2018,06,17,11,05,24.40
2018,06,17,11,06,24.50
2018,06,17,11,07,24.60
2018,06,17,11,08,24.70
2018,06,17,11,09,24.80
2018,06,17,11,10,24.90
2018,06,17,11,11,24.90
2018,06,17,11,12,25.00
2018,06,17,11,13,25.00
2018,06,17,11,14,25.00
2018,06,17,11,15,25.00
2018,06,17,11,16,25.00
2018,06,17,11,17,24.90
2018,06,17,11,18,24.80
2018,06,17,11,19,24.70
2018,06,17,11,20,24.50
2018,06,17,11,21,24.40
2018,06,17,11,22,24.40
2018,06,17,11,23,24.40
2018,06,17,11,24,24.40
2018,06,17,11,25,24.50
2018,06,17,11,26,24.60
2018,06,17,11,27,24.60
2018,06,17,11,28,24.60
2018,06,17,11,29,24.60
2018,06,17,11,30,24.70
2018,06,17,11,31,24.80
2018,06,17,11,32,24.80
2018,06,17,11,33,24.90
2018,06,17,11,34,24.90
2018,06,17,11,35,24.90
2018,06,17,11,36,24.90
2018,06,17,11,37,24.90
2018,06,17,11,38,24.90
2018,06,17,11,39,24.90
2018,06,17,11,40,24.90
2018,06,17,11,41,24.90
2018,06,17,11,42,24.80
2018,06,17,11,43,24.80
2018,06,17,11,44,24.70
2018,06,17,11,45,24.70
2018,06,17,11,46,24.70
2018,06,17,11,47,24.70
2018,06,17,11,48,24.70
2018,06,17,11,49,24.70
2018,06,17,11,50,24.80
2018,06,17,11,51,24.90
2018,06,17,11,52,24.90
2018,06,17,11,53,24.90
2018,06,17,11,54,25.00
2018,06,17,11,55,25.00
2018,06,17,11,56,24.90
2018,06,17,11,57,24.90
2018,06,17,11,58,24.90
2018,06,17,11,59,24.90
2018,06,17,12,00,24.90
2018,06,17,12,01,24.90
2018,06,17,12,02,24.80
2018,06,17,12,03,24.70
2018,06,17,12,04,24.80
2018,06,17,12,05,24.80
2018,06,17,12,06,24.90
2018,06,17,12,07,24.90
2018,06,17,12,08,25.00
2018,06,17,12,09,25.00
2018,06,17,12,10,25.00
2018,06,17,12,11,25.00
2018,06,17,12,12,24.90
2018,06,17,12,13,24.90
2018,06,17,12,14,25.00
2018,06,17,12,15,25.00
2018,06,17,12,16,25.10
2018,06,17,12,17,25.30
2018,06,17,12,18,25.40
2018,06,17,12,19,25.60
2018,06,17,12,20,25.80
2018,06,17,12,21,26.00
2018,06,17,12,22,26.10
2018,06,17,12,23,26.20
2018,06,17,12,24,26.30
2018,06,17,12,25,26.40
2018,06,17,12,26,26.50
2018,06,17,12,27,26.70
2018,06,17,12,28,26.80
2018,06,17,12,29,26.80
2018,06,17,12,30,26.90
2018,06,17,12,31,27.00
2018,06,17,12,32,27.10
2018,06,17,12,33,27.10
2018,06,17,12,34,27.10
2018,06,17,12,35,27.00
2018,06,17,12,36,26.90
2018,06,17,12,37,26.90
2018,06,17,12,38,26.80
2018,06,17,12,39,26.70
2018,06,17,12,40,26.50
2018,06,17,12,41,26.40
2018,06,17,12,42,26.20
2018,06,17,12,43,26.20
2018,06,17,12,44,26.20
2018,06,17,12,45,26.30
2018,06,17,12,46,26.30
2018,06,17,12,47,26.40
2018,06,17,12,48,26.50
2018,06,17,12,49,26.60
2018,06,17,12,50,26.70
2018,06,17,12,51,26.70
2018,06,17,12,52,26.70
2018,06,17,12,53,26.50
2018,06,17,12,54,26.30
2018,06,17,12,55,26.20
2018,06,17,12,56,26.10
2018,06,17,12,57,26.10
2018,06,17,12,58,26.10
2018,06,17,12,59,26.20
2018,06,17,13,00,26.20
2018,06,17,13,01,26.40
2018,06,17,13,02,26.60
2018,06,17,13,03,26.80
2018,06,17,13,04,26.80
2018,06,17,13,05,26.80
2018,06,17,13,06,26.90
2018,06,17,13,07,26.90
2018,06,17,13,08,27.00
2018,06,17,13,09,27.10
2018,06,17,13,10,27.10
2018,06,17,13,11,27.20
2018,06,17,13,12,27.30
2018,06,17,13,13,27.40
2018,06,17,13,14,27.50
2018,06,17,13,15,27.50
2018,06,17,13,16,27.60
2018,06,17,13,17,27.60
2018,06,17,13,18,27.60
2018,06,17,13,19,27.60
2018,06,17,13,20,27.70
2018,06,17,13,21,27.90
2018,06,17,13,22,28.00
2018,06,17,13,23,28.10
2018,06,17,13,24,28.20
2018,06,17,13,25,28.30
2018,06,17,13,26,28.30
2018,06,17,13,27,28.40
2018,06,17,13,28,28.60
2018,06,17,13,29,28.70
2018,06,17,13,30,28.70
2018,06,17,13,31,28.80
2018,06,17,13,32,28.90
2018,06,17,13,33,28.80
2018,06,17,13,34,28.80
2018,06,17,13,35,28.80
2018,06,17,13,36,28.80
2018,06,17,13,37,28.80
2018,06,17,13,38,28.80
2018,06,17,13,39,28.70
2018,06,17,13,40,28.70
2018,06,17,13,41,28.70
2018,06,17,13,42,28.70
2018,06,17,13,43,28.80
2018,06,17,13,44,28.90
2018,06,17,13,45,29.00
2018,06,17,13,46,29.10
2018,06,17,13,47,29.30
2018,06,17,13,48,29.40
2018,06,17,13,49,29.60
2018,06,17,13,50,29.50
2018,06,17,13,51,29.40
2018,06,17,13,52,29.30
2018,06,17,13,53,29.30
2018,06,17,13,54,29.30
2018,06,17,13,55,29.10
2018,06,17,13,56,28.90
2018,06,17,13,57,28.70
2018,06,17,13,58,28.70
2018,06,17,13,59,28.80
2018,06,17,14,00,28.80
2018,06,17,14,01,28.90
2018,06,17,14,02,28.90
2018,06,17,14,03,28.90
2018,06,17,14,04,28.90
2018,06,17,14,05,28.90
2018,06,17,14,06,29.00
2018,06,17,14,07,29.10
2018,06,17,14,08,29.20
2018,06,17,14,09,29.20
2018,06,17,14,10,29.10
2018,06,17,14,11,28.90
2018,06,17,14,12,28.80
2018,06,17,14,13,28.80
2018,06,17,14,14,28.90
2018,06,17,14,15,29.10
2018,06,17,14,16,29.20
2018,06,17,14,17,29.30
2018,06,17,14,18,29.40
2018,06,17,14,19,29.50
2018,06,17,14,20,29.60
2018,06,17,14,21,29.70
2018,06,17,14,22,29.80
2018,06,17,14,23,29.60
2018,06,17,14,24,29.30
2018,06,17,14,25,29.10
2018,06,17,14,26,28.80
2018,06,17,14,27,28.70
2018,06,17,14,28,28.70
2018,06,17,14,29,28.80
2018,06,17,14,30,28.90
2018,06,17,14,31,29.10
2018,06,17,14,32,29.20
2018,06,17,14,33,29.40
2018,06,17,14,34,29.50
2018,06,17,14,35,29.60
2018,06,17,14,36,29.80
2018,06,17,14,37,29.90
2018,06,17,14,38,29.90
2018,06,17,14,39,29.90
2018,06,17,14,40,30.00
2018,06,17,14,41,30.10
2018,06,17,14,42,30.10
2018,06,17,14,43,30.00
2018,06,17,14,44,30.10
2018,06,17,14,45,30.20
2018,06,17,14,46,30.30
2018,06,17,14,47,30.40
2018,06,17,14,48,30.30
2018,06,17,14,49,30.20
2018,06,17,14,50,30.10
2018,06,17,14,51,30.10
2018,06,17,14,52,30.00
2018,06,17,14,53,29.90
2018,06,17,14,54,30.00
2018,06,17,14,55,30.20
2018,06,17,14,56,30.20
2018,06,17,14,57,30.30
2018,06,17,14,58,30.30
2018,06,17,14,59,30.40
2018,06,17,15,00,30.40
2018,06,17,15,01,30.50
2018,06,17,15,02,30.50
2018,06,17,15,03,30.60
2018,06,17,15,04,30.50
2018,06,17,15,05,30.40
2018,06,17,15,06,30.10
2018,06,17,15,07,30.00
2018,06,17,15,08,29.90
2018,06,17,15,09,29.80
2018,06,17,15,10,29.80
2018,06,17,15,11,29.80
2018,06,17,15,12,29.90
2018,06,17,15,13,29.90
2018,06,17,15,14,30.00
2018,06,17,15,15,30.10
2018,06,17,15,16,30.10
2018,06,17,15,17,30.20
2018,06,17,15,18,30.30
2018,06,17,15,19,30.40
2018,06,17,15,20,30.50
2018,06,17,15,21,30.40
2018,06,17,15,22,30.30
2018,06,17,15,23,30.00
2018,06,17,15,24,29.80
2018,06,17,15,25,29.80
2018,06,17,15,26,29.60
2018,06,17,15,27,29.30
2018,06,17,15,28,29.10
2018,06,17,15,29,29.00
2018,06,17,15,30,28.90
2018,06,17,15,31,28.90
2018,06,17,15,32,28.80
2018,06,17,15,33,28.80
2018,06,17,15,34,28.70
2018,06,17,15,35,28.80
2018,06,17,15,36,28.80
2018,06,17,15,37,28.80
2018,06,17,15,38,28.90
2018,06,17,15,39,29.00
2018,06,17,15,40,29.30
2018,06,17,15,41,29.50
2018,06,17,15,42,29.70
2018,06,17,15,43,29.90
2018,06,17,15,44,30.00
2018,06,17,15,45,30.20
2018,06,17,15,46,30.30
2018,06,17,15,47,30.40
2018,06,17,15,48,30.40
2018,06,17,15,49,30.40
2018,06,17,15,50,30.40
2018,06,17,15,51,30.30
2018,06,17,15,52,30.20
2018,06,17,15,53,30.10
2018,06,17,15,54,30.00
2018,06,17,15,55,29.90
2018,06,17,15,56,29.80
2018,06,17,15,57,29.80
2018,06,17,15,58,29.70
2018,06,17,15,59,29.70
2018,06,17,16,00,29.60
2018,06,17,16,01,29.60
2018,06,17,16,02,29.60
2018,06,17,16,03,29.60
2018,06,17,16,04,29.70
2018,06,17,16,05,29.70
2018,06,17,16,06,29.70
2018,06,17,16,07,29.70
2018,06,17,16,08,29.70
2018,06,17,16,09,29.70
2018,06,17,16,10,29.80
2018,06,17,16,11,29.80
2018,06,17,16,12,29.80
2018,06,17,16,13,29.80
2018,06,17,16,14,29.80
2018,06,17,16,15,29.80
2018,06,17,16,16,29.70
2018,06,17,16,17,29.60
2018,06,17,16,18,29.60
2018,06,17,16,19,29.70
2018,06,17,16,20,29.60
2018,06,17,16,21,29.50
2018,06,17,16,22,29.50
2018,06,17,16,23,29.40
2018,06,17,16,24,29.40
2018,06,17,16,25,29.50
2018,06,17,16,26,29.60
2018,06,17,16,27,29.70
2018,06,17,16,28,29.80
2018,06,17,16,29,29.90
2018,06,17,16,30,30.00
2018,06,17,16,31,30.10
2018,06,17,16,32,30.20
2018,06,17,16,33,30.30
2018,06,17,16,34,30.30
2018,06,17,16,35,30.20
2018,06,17,16,36,30.20
2018,06,17,16,37,30.30
2018,06,17,16,38,30.30
2018,06,17,16,39,30.40
2018,06,17,16,40,30.60
2018,06,17,16,41,30.70
2018,06,17,16,42,30.70
2018,06,17,16,43,30.70
2018,06,17,16,44,30.80
2018,06,17,16,45,30.70
2018,06,17,16,46,30.70
2018,06,17,16,47,30.70
2018,06,17,16,48,30.60
2018,06,17,16,49,30.60
2018,06,17,16,50,30.50
2018,06,17,16,51,30.60
2018,06,17,16,52,30.60
2018,06,17,16,53,30.60
2018,06,17,16,54,30.70
2018,06,17,16,55,30.80
2018,06,17,16,56,30.90
2018,06,17,16,57,31.00
2018,06,17,16,58,31.10
2018,06,17,16,59,31.20
2018,06,17,17,00,31.30
2018,06,17,17,01,31.40
2018,06,17,17,02,31.40
2018,06,17,17,03,31.50
2018,06,17,17,04,31.50
2018,06,17,17,05,31.60
2018,06,17,17,06,31.70
2018,06,17,17,07,31.70
2018,06,17,17,08,31.70
2018,06,17,17,09,31.50
2018,06,17,17,10,31.40
2018,06,17,17,11,31.30
2018,06,17,17,12,31.30
2018,06,17,17,13,31.20
2018,06,17,17,14,31.20
2018,06,17,17,15,31.20
2018,06,17,17,16,31.20
2018,06,17,17,17,31.20
2018,06,17,17,18,31.30
2018,06,17,17,19,31.30